The Dalles, WA

6:17 AM PST on November 14, 2019 (GMT -0800)
Columbia Gorge Regional-The Dalles

Weather History for KDLS - October, 2019

Change the Weather History Date:

Wednesday, October 23, 2019

  Actual Average Record
Temperature  
Mean Temperature 54 °F -  
Max Temperature 66 °F 63 °F 73 °F (1992)
Min Temperature 42 °F 40 °F 27 °F (1981)
Degree Days  
Heating Degree Days 11    
Growing Degree Days 4 (Base 50)    
Moisture  
Dew Point 40 °F    
Average Humidity 65    
Maximum Humidity 89    
Minimum Humidity 37    
Precipitation  
Precipitation 0.00 in - - ()
Sea Level Pressure  
Sea Level Pressure 30.43 in    
Wind  
Wind Speed 8 mph (North)    
Max Wind Speed 22 mph    
Max Gust Speed -    
Visibility 10 miles    
Events      
Averages and records for this station are not official NWS values.
T = Trace of Precipitation, MM = Missing Value Source: NWS Daily Summary

Daily Weather History Graph

Daily Weather History Graph

Search for Another Location

Airport or City:

Astronomy

Oct. 23, 2019 Rise Set
Actual Time 7:31 AM PDT 6:05 PM PDT
Civil Twilight 7:01 AM PDT 6:35 PM PDT
Nautical Twilight 6:26 AM PDT 7:10 PM PDT
Astronomical Twilight 5:52 AM PDT 7:44 PM PDT
Moon 1:34 AM PDT (10/23) 4:18 PM PDT (10/23)
Length of Visible Light 11h 34m
Length of Day
10h 33m
Waning Crescent, 25% of the Moon is Illuminated
Oct 23
Waning Crescent
Oct 27
New
Nov 4
First Quarter
Nov 12
Full
Nov 19
Last Quarter

Hourly Weather History & Observations

Time (PDT) Temp. Windchill Dew Point Humidity Pressure Visibility Wind Dir Wind Speed Gust Speed Precip Events Conditions
12:53 AM 55.0 °F - 45.0 °F 69% 30.35 in 10.0 mi NW 21.9 mph - N/A   Clear
1:53 AM 53.1 °F - 44.1 °F 71% 30.37 in 10.0 mi NW 10.4 mph - N/A   Clear
2:53 AM 51.1 °F - 43.0 °F 74% 30.38 in 10.0 mi West 6.9 mph - N/A   Clear
3:53 AM 48.9 °F - 41.0 °F 74% 30.38 in 10.0 mi West 5.8 mph - N/A   Clear
4:53 AM 48.9 °F - 43.0 °F 80% 30.39 in 10.0 mi NW 8.1 mph - N/A   Clear
5:53 AM 48.0 °F - 43.0 °F 83% 30.42 in 10.0 mi NW 9.2 mph - N/A   Clear
6:53 AM 44.1 °F 42.5 °F 39.9 °F 85% 30.43 in 10.0 mi ESE 3.5 mph - N/A   Clear
7:53 AM 42.1 °F - 39.0 °F 89% 30.45 in 10.0 mi Calm Calm - N/A   Clear
9:53 AM 50.0 °F - 42.1 °F 74% 30.50 in 10.0 mi NNE 3.5 mph - N/A   Clear
10:53 AM 53.1 °F - 43.0 °F 69% 30.50 in 10.0 mi Calm Calm - N/A   Clear
11:53 AM 55.0 °F - 44.1 °F 67% 30.49 in 10.0 mi Calm Calm - N/A   Clear
12:53 PM 59.0 °F - 43.0 °F 55% 30.48 in 10.0 mi Calm Calm - N/A   Clear
1:53 PM 62.1 °F - 39.9 °F 44% 30.45 in 10.0 mi Variable 3.5 mph - N/A   Clear
2:53 PM 64.0 °F - 42.1 °F 45% 30.44 in 10.0 mi Variable 3.5 mph - N/A   Clear
3:53 PM 66.0 °F - 39.0 °F 37% 30.43 in 10.0 mi NE 6.9 mph - N/A   Clear
4:53 PM 64.0 °F - 37.9 °F 38% 30.42 in 10.0 mi ENE 8.1 mph - N/A   Clear
5:53 PM 60.1 °F - 37.0 °F 42% 30.42 in 10.0 mi ENE 9.2 mph - N/A   Clear
6:53 PM 55.9 °F - 36.0 °F 47% 30.42 in 10.0 mi East 8.1 mph - N/A   Clear
7:53 PM 52.0 °F - 39.0 °F 61% 30.43 in 10.0 mi West 3.5 mph - N/A   Clear
8:53 PM 50.0 °F - 37.9 °F 63% 30.44 in 10.0 mi Calm Calm - N/A   Clear
9:53 PM 46.9 °F - 37.9 °F 71% 30.45 in 10.0 mi South 3.5 mph - N/A   Clear
10:53 PM 44.1 °F 42.5 °F 35.1 °F 71% 30.46 in 10.0 mi ESE 3.5 mph - N/A   Clear
11:53 PM 44.1 °F 42.5 °F 37.0 °F 76% 30.47 in 10.0 mi SSE 3.5 mph - N/A   Clear